Location: Caoba
(9.7667°N, 67.4833°W)
Time: 19:24:14
(UTC+00:00)

GOES 2 Rocket - Pass Details

Date: 14 December 2024
Orbit: 569 x 1662 km, 28.4° (Epoch: 14 January)

Event Time Altitude Azimuth Distance (km) Brightness Sun altitude
Rises 00:55:38 0° 260° (W) 4,758 8.5 -38.4°
Reaches altitude 10° 00:59:18 10° 267° (W) 3,664 7.6 -39.3°
Enters shadow 01:06:11 37° 307° (NW) 1,948 5.6 -40.8°
